HYLAS 4

Last updated on Thu Oct 30 2025 00:02:51 GMT+0000 (Coordinated Universal Time)

1 43272U 18033B 25301.75086410 -.00000223 00000+0 00000+0 0 9991 2 43272 0.0266 273.2411 0001037 311.9730 48.9584 1.00269806 27749
UTC large
Height (km)
Speed (km/s)
/
Latitude / Longitude
Inclination (degrees)
Orbital Period (minutes)
Azimuth
Elevation
Range (km)
Doppler Factor

Next 0 passes for location: London (51.5072 / 0.1276)

Sorry there are no passes over London.